Lamar — WDE7053 — position and weather

sailwx.info

Track history (hours):
 
Tides and Currents Weather Stations Pressure Air Temp Water Temp Dewpoint Dewpoint Depression Visibility Wind Speed Wind Dir Waves Ship Positions

Lamar

Owner: G & H Towing Company, Galveston, TX. More information available from US FCC via Universal Licensing System and Coast Guard Vessel Documentation Center.

Last reported at 2018-Jan-11 22:55 UTC. Time now 2018-Jan-18 00:07 UTC.
Position N 29°44' W 095°08'.

Length 30 m; draft 6.5 m.

Type: Tug. MMSI: 367388340.

Date/timePositionNaut miles runAvg speedWind from/ knotsBaromVisibWave heightAir tempDewpointWater temp
2018-Jan-11 22:55N 29°44' W 095°08'1 0.1
2018-Jan-11 17:07N 29°44' W 095°07'1 0.1
2018-Jan-11 12:27N 29°44' W 095°08'0 0.0
2018-Jan-11 11:53N 29°44' W 095°08'1 1.5
2018-Jan-11 11:25N 29°44' W 095°07'3 0.4
2018-Jan-11 05:05N 29°45' W 095°04'110.0
2018-Jan-11 04:59N 29°44' W 095°03'2 3.1
2018-Jan-11 04:12N 29°43' W 095°01'0 2.5
2018-Jan-11 04:00N 29°42' W 095°01'0 0.0
2018-Jan-11 03:21N 29°42' W 095°01'0 0.0
2018-Jan-11 03:00N 29°42' W 095°01'0 0.0
2018-Jan-11 02:15N 29°42' W 095°01'0 0.0
2018-Jan-11 02:00N 29°42' W 095°01'0 0.0
2018-Jan-11 01:27N 29°42' W 095°01'0 0.0
2018-Jan-11 00:57N 29°42' W 095°01'0 1.1
2018-Jan-11 00:30N 29°43' W 095°01'1 1.0
2018-Jan-10 23:30N 29°44' W 095°01'2 3.6
2018-Jan-10 23:00N 29°42' W 095°01'1 2.8
2018-Jan-10 22:29N 29°41' W 094°60'0 0.0
2018-Jan-10 21:53N 29°41' W 094°60'0 0.0
2018-Jan-10 21:26N 29°41' W 094°60'1 2.1
2018-Jan-10 21:00N 29°42' W 094°60'4 0.5
2018-Jan-10 14:05N 29°44' W 095°03'2 0.9
2018-Jan-10 11:21N 29°42' W 095°01'3 7.5
2018-Jan-10 11:01N 29°41' W 094°59'1 2.7
2018-Jan-10 10:30N 29°41' W 095°00'0 0.1
2018-Jan-10 09:57N 29°41' W 095°00'0 0.0
2018-Jan-10 08:09N 29°41' W 095°00'1 3.9
2018-Jan-10 08:00N 29°41' W 094°60'2 1.7
2018-Jan-10 06:44N 29°43' W 095°01'0 1.2
2018-Jan-10 06:24N 29°42' W 095°01'0 0.0
2018-Jan-10 06:00N 29°42' W 095°01'0 0.0
2018-Jan-10 05:30N 29°42' W 095°01'0 0.0
2018-Jan-10 04:45N 29°42' W 095°01'0 0.0
2018-Jan-10 04:24N 29°42' W 095°01'1 3.1
2018-Jan-10 03:58N 29°44' W 095°01'1 1.0
2018-Jan-10 02:42N 29°42' W 095°01'0 0.0
2018-Jan-09 22:44N 29°42' W 095°01'0 0.0
2018-Jan-09 22:26N 29°42' W 095°01'5 2.2
2018-Jan-09 20:09N 29°38' W 094°58'1 9.4
2018-Jan-09 20:00N 29°39' W 094°58'2 3.8
2018-Jan-09 19:30N 29°41' W 094°60'0 0.8
2018-Jan-09 19:00N 29°41' W 094°59'2 4.5
2018-Jan-09 18:31N 29°39' W 094°58'4 7.3
2018-Jan-09 18:00N 29°42' W 095°01'1 1.0
2018-Jan-09 17:30N 29°42' W 095°01'0 0.0
2018-Jan-09 17:00N 29°42' W 095°01'0 0.0
2018-Jan-09 16:30N 29°42' W 095°01'0 0.0
2018-Jan-09 16:01N 29°42' W 095°01'2 3.8
2018-Jan-09 15:21N 29°44' W 095°03'0 0.1
2018-Jan-09 15:00N 29°44' W 095°03'2 4.0
2018-Jan-09 14:30N 29°46' W 095°04'2 0.9
2018-Jan-09 12:50N 29°45' W 095°06'1 3.0
2018-Jan-09 12:30N 29°46' W 095°05'5 7.0
2018-Jan-09 11:47N 29°42' W 095°01'0 0.1
2018-Jan-09 08:46N 29°42' W 095°01'2 0.1
2018-Jan-08 18:55N 29°41' W 094°59'9 0.5
2018-Jan-08 01:45N 29°44' W 095°08'0 0.7
2018-Jan-08 01:18N 29°44' W 095°09'0 0.0
2018-Jan-08 00:55N 29°44' W 095°09'4 0.3
2018-Jan-07 08:58N 29°46' W 095°04'2 0.6
2018-Jan-07 05:55N 29°44' W 095°03'2 3.3
2018-Jan-07 05:13N 29°42' W 095°01'0 0.7
2018-Jan-07 05:00N 29°42' W 095°01'0 0.0
2018-Jan-07 04:30N 29°42' W 095°01'0 0.0
2018-Jan-07 03:58N 29°42' W 095°01'5 6.7
2018-Jan-07 03:13N 29°46' W 095°05'1 0.1
2018-Jan-06 19:33N 29°45' W 095°06'2 4.5
2018-Jan-06 19:05N 29°44' W 095°03'2 5.5
2018-Jan-06 18:38N 29°43' W 095°01'1 6.5
2018-Jan-06 18:29N 29°42' W 095°00'3 6.2
2018-Jan-06 18:01N 29°40' W 094°58'3 5.3
2018-Jan-06 17:22N 29°42' W 095°01'0 0.0
2018-Jan-06 16:52N 29°42' W 095°01'0 0.0
2018-Jan-06 14:01N 29°42' W 095°01'0 0.0
2018-Jan-06 13:52N 29°42' W 095°01'0 0.0
2018-Jan-06 13:07N 29°42' W 095°01'0 0.0
2018-Jan-06 12:55N 29°42' W 095°01'0 0.0
2018-Jan-06 12:10N 29°42' W 095°01'0 0.0
2018-Jan-06 11:58N 29°42' W 095°01'0 0.0
2018-Jan-06 11:13N 29°42' W 095°01'0 0.0
2018-Jan-06 10:58N 29°42' W 095°01'0 0.0
2018-Jan-06 08:49N 29°42' W 095°01'0 0.0
2018-Jan-06 08:16N 29°42' W 095°01'0 0.0
2018-Jan-06 07:58N 29°42' W 095°01'1 1.2
2018-Jan-06 07:30N 29°42' W 095°01'4 8.9
2018-Jan-06 07:00N 29°38' W 094°58'3 6.2
2018-Jan-06 06:30N 29°37' W 095°01'0 0.9
2018-Jan-06 06:00N 29°37' W 095°01'1 1.8
2018-Jan-06 05:30N 29°37' W 095°00'0 0.2
2018-Jan-06 05:00N 29°37' W 095°00'0 0.0
2018-Jan-06 04:30N 29°37' W 095°00'0 0.0
2018-Jan-06 04:00N 29°37' W 095°00'0 0.0
2018-Jan-06 03:30N 29°37' W 095°00'0 0.0
2018-Jan-06 03:00N 29°37' W 095°00'1 1.2
2018-Jan-06 02:30N 29°37' W 095°01'0 0.1
2018-Jan-06 01:59N 29°37' W 095°01'2 3.1
2018-Jan-06 01:30N 29°37' W 094°59'4 3.0
2018-Jan-06 00:06N 29°41' W 094°59'0 0.1
2018-Jan-06 00:00N 29°41' W 094°59'0 0.0
2018-Jan-05 23:30N 29°41' W 094°59'0 0.0
2018-Jan-05 23:00N 29°41' W 094°59'0 0.0
2018-Jan-05 22:30N 29°41' W 094°59'0 0.0
2018-Jan-05 22:00N 29°41' W 094°59'0 0.0
2018-Jan-05 21:30N 29°41' W 094°59'0 0.6
2018-Jan-05 20:59N 29°41' W 094°59'0 0.4
2018-Jan-05 20:30N 29°41' W 094°59'2 0.2
2018-Jan-05 11:58N 29°42' W 095°01'2 3.1
2018-Jan-05 11:29N 29°41' W 095°00'0 0.2
2018-Jan-05 10:59N 29°41' W 095°00'2 3.8
2018-Jan-05 10:30N 29°40' W 094°59'1 2.0
2018-Jan-05 09:52N 29°41' W 094°59'0 0.0
2018-Jan-05 08:52N 29°41' W 094°59'0 0.0
2018-Jan-05 08:22N 29°41' W 094°59'0 0.0
2018-Jan-05 07:52N 29°41' W 094°59'0 0.0
2018-Jan-05 07:22N 29°41' W 094°59'0 0.0
2018-Jan-05 06:58N 29°41' W 094°59'0 0.0
2018-Jan-05 06:22N 29°41' W 094°59'0 0.0
2018-Jan-05 05:58N 29°41' W 094°59'0 0.0
2018-Jan-05 05:28N 29°41' W 094°59'0 0.0
2018-Jan-05 04:52N 29°41' W 094°59'0 0.0
2018-Jan-05 04:25N 29°41' W 094°59'0 0.0
2018-Jan-05 03:58N 29°41' W 094°59'0 0.0
2018-Jan-05 03:28N 29°41' W 094°59'0 0.0
2018-Jan-05 02:55N 29°41' W 094°59'0 0.0
2018-Jan-05 02:10N 29°41' W 094°59'0 0.0
2018-Jan-05 01:52N 29°41' W 094°59'0 0.0
2018-Jan-05 01:30N 29°41' W 094°59'1 1.9
2018-Jan-05 00:55N 29°41' W 095°00'1 3.0
2018-Jan-05 00:31N 29°41' W 094°59'4 7.7
2018-Jan-04 23:58N 29°37' W 094°59'1 2.8
2018-Jan-04 23:30N 29°37' W 095°00'0 0.0
2018-Jan-04 23:00N 29°37' W 095°00'0 0.0
2018-Jan-04 22:28N 29°37' W 095°00'0 0.0
2018-Jan-04 21:58N 29°37' W 095°00'0 0.0
2018-Jan-04 21:28N 29°37' W 095°00'0 0.0
2018-Jan-04 20:58N 29°37' W 095°00'2 5.3
2018-Jan-04 20:30N 29°37' W 094°58'4 8.0
2018-Jan-04 20:00N 29°41' W 094°60'1 1.4
2018-Jan-04 19:27N 29°41' W 095°01'1 2.7
2018-Jan-04 18:57N 29°42' W 095°01'0 0.0
2018-Jan-04 18:23N 29°42' W 095°01'0 0.0
2018-Jan-04 17:56N 29°42' W 095°01'0 0.0
2018-Jan-04 15:53N 29°42' W 095°01'0 0.0
2018-Jan-04 15:14N 29°42' W 095°01'0 0.0
2018-Jan-04 14:53N 29°42' W 095°01'0 0.0
2018-Jan-04 14:11N 29°42' W 095°01'0 0.0
2018-Jan-04 13:59N 29°42' W 095°01'0 0.0
2018-Jan-04 13:29N 29°42' W 095°01'0 0.0
2018-Jan-04 12:56N 29°42' W 095°01'1 3.2
2018-Jan-04 12:30N 29°44' W 095°01'0 0.1
2018-Jan-04 11:57N 29°44' W 095°01'1 0.8
2018-Jan-04 10:04N 29°42' W 095°01'0 0.0
2018-Jan-04 09:52N 29°42' W 095°01'0 0.0
2018-Jan-04 09:28N 29°42' W 095°01'0 0.0
2018-Jan-04 08:55N 29°42' W 095°01'0 0.0
2018-Jan-04 07:16N 29°42' W 095°01'0 0.0
2018-Jan-04 06:46N 29°42' W 095°01'0 0.0
2018-Jan-04 06:28N 29°42' W 095°01'0 0.0
2018-Jan-04 04:58N 29°42' W 095°01'0 0.0
2018-Jan-04 00:56N 29°42' W 095°01'6 0.9
2018-Jan-03 18:50N 29°44' W 095°07'3 2.4
2018-Jan-03 17:30N 29°44' W 095°04'2 4.3
2018-Jan-03 16:55N 29°43' W 095°01'3 6.9
2018-Jan-03 16:30N 29°41' W 094°59'4 7.9
2018-Jan-03 15:59N 29°37' W 094°59'2 3.3
2018-Jan-03 15:30N 29°37' W 095°01'0 0.9
2018-Jan-03 15:00N 29°37' W 095°01'1 1.4
2018-Jan-03 14:30N 29°37' W 095°01'1 1.8
2018-Jan-03 14:00N 29°37' W 095°00'0 0.6
2018-Jan-03 13:30N 29°37' W 094°60'0 0.1
2018-Jan-03 12:54N 29°37' W 095°00'1 1.9
2018-Jan-03 12:30N 29°37' W 095°01'0 0.1
2018-Jan-03 12:00N 29°37' W 095°01'1 1.5
2018-Jan-03 11:30N 29°37' W 095°00'0 0.0
2018-Jan-03 10:58N 29°37' W 095°00'0 0.0
2018-Jan-03 10:28N 29°37' W 095°00'0 0.0
2018-Jan-03 09:58N 29°37' W 095°00'0 0.0
2018-Jan-03 09:28N 29°37' W 095°00'0 0.6
2018-Jan-03 09:00N 29°37' W 095°00'0 0.3
2018-Jan-03 08:31N 29°37' W 095°01'0 0.0
2018-Jan-03 08:01N 29°37' W 095°01'0 0.0
2018-Jan-03 07:30N 29°37' W 095°01'0 0.0
2018-Jan-03 07:00N 29°37' W 095°01'0 0.0
2018-Jan-03 06:28N 29°37' W 095°01'0 0.0
2018-Jan-03 05:58N 29°37' W 095°01'0 0.0
2018-Jan-03 05:28N 29°37' W 095°01'0 0.0
2018-Jan-03 04:58N 29°37' W 095°01'0 0.0
2018-Jan-03 04:28N 29°37' W 095°01'0 0.0
2018-Jan-03 03:58N 29°37' W 095°01'0 0.0
2018-Jan-03 03:28N 29°37' W 095°01'0 0.0
2018-Jan-03 02:58N 29°37' W 095°01'0 0.0
2018-Jan-03 02:28N 29°37' W 095°01'0 0.0
2018-Jan-03 01:58N 29°37' W 095°01'0 0.0
2018-Jan-03 01:28N 29°37' W 095°01'0 0.0
2018-Jan-03 00:58N 29°37' W 095°01'1 1.6
2018-Jan-03 00:30N 29°37' W 095°01'0 0.1
2018-Jan-03 00:00N 29°37' W 095°01'1 2.1
2018-Jan-02 23:30N 29°37' W 095°00'0 0.0
2018-Jan-02 22:59N 29°37' W 095°00'0 0.0
2018-Jan-02 22:29N 29°37' W 095°00'0 0.0
2018-Jan-02 21:59N 29°37' W 095°00'0 0.0
2018-Jan-02 21:29N 29°37' W 095°00'0 0.0
2018-Jan-02 20:59N 29°37' W 095°00'0 0.0
2018-Jan-02 20:29N 29°37' W 095°00'0 0.0
2018-Jan-02 19:59N 29°37' W 095°00'0 0.0
2018-Jan-02 19:29N 29°37' W 095°00'0 0.1
2018-Jan-02 19:00N 29°37' W 095°00'2 4.0
2018-Jan-02 18:30N 29°37' W 094°58'2 3.9
2018-Jan-02 18:01N 29°37' W 095°00'0 0.4
2018-Jan-02 17:30N 29°37' W 094°60'0 0.0
2018-Jan-02 17:00N 29°37' W 094°60'0 0.0
2018-Jan-02 16:30N 29°37' W 094°60'0 0.0
2018-Jan-02 15:59N 29°37' W 094°60'0 0.5
2018-Jan-02 15:30N 29°37' W 095°00'1 1.6
2018-Jan-02 15:00N 29°37' W 095°01'0 0.0
2018-Jan-02 14:30N 29°37' W 095°01'0 0.0
2018-Jan-02 14:00N 29°37' W 095°01'0 0.0
2018-Jan-02 13:30N 29°37' W 095°01'0 0.0
2018-Jan-02 13:00N 29°37' W 095°01'0 0.0
2018-Jan-02 12:30N 29°37' W 095°01'1 1.3
2018-Jan-02 12:00N 29°37' W 095°00'1 1.5
2018-Jan-02 11:31N 29°37' W 095°01'2 4.4
2018-Jan-02 11:00N 29°37' W 094°59'4 8.2
2018-Jan-02 10:30N 29°34' W 094°55'2 4.6
2018-Jan-02 09:58N 29°36' W 094°57'3 6.5
2018-Jan-02 09:30N 29°37' W 095°00'0 0.0
2018-Jan-02 08:30N 29°37' W 095°00'0 0.0
2018-Jan-02 08:00N 29°37' W 095°00'0 0.0
2018-Jan-02 07:30N 29°37' W 095°00'0 0.0
2018-Jan-02 07:00N 29°37' W 095°00'0 0.4
2018-Jan-02 06:31N 29°37' W 095°00'0 0.5
2018-Jan-02 05:59N 29°37' W 095°00'0 0.4
2018-Jan-02 05:30N 29°37' W 095°01'0 0.1
2018-Jan-02 04:30N 29°37' W 095°00'0 0.3
2018-Jan-02 04:00N 29°37' W 095°01'0 0.8
2018-Jan-02 03:31N 29°37' W 095°00'0 0.6
2018-Jan-02 02:59N 29°37' W 095°01'0 0.0
2018-Jan-02 02:29N 29°37' W 095°01'0 0.0
2018-Jan-02 01:59N 29°37' W 095°01'2 4.9
2018-Jan-02 01:30N 29°37' W 094°58'2 4.7
2018-Jan-02 01:00N 29°37' W 095°01'3 5.4
2018-Jan-02 00:30N 29°38' W 094°58'5 9.2
2018-Jan-01 23:59N 29°42' W 094°60'  
Track history (hours):
 
Tides and Currents Weather Stations Pressure Air Temp Water Temp Dewpoint Dewpoint Depression Visibility Wind Speed Wind Dir Waves Ship Positions

Lamar

Owner: G & H Towing Company, Galveston, TX. More information available from US FCC via Universal Licensing System and Coast Guard Vessel Documentation Center.

Last reported at 2018-Jan-11 22:55 UTC. Time now 2018-Jan-18 00:07 UTC.
Position N 29°44' W 095°08'.

Length 30 m; draft 6.5 m.

Type: Tug. MMSI: 367388340.

Date/timePositionNaut miles runAvg speedWind from/ knotsBaromVisibWave heightAir tempDewpointWater temp
2018-Jan-11 22:55N 29°44' W 095°08'1 0.1
2018-Jan-11 17:07N 29°44' W 095°07'1 0.1
2018-Jan-11 12:27N 29°44' W 095°08'0 0.0
2018-Jan-11 11:53N 29°44' W 095°08'1 1.5
2018-Jan-11 11:25N 29°44' W 095°07'3 0.4
2018-Jan-11 05:05N 29°45' W 095°04'110.0
2018-Jan-11 04:59N 29°44' W 095°03'2 3.1
2018-Jan-11 04:12N 29°43' W 095°01'0 2.5
2018-Jan-11 04:00N 29°42' W 095°01'0 0.0
2018-Jan-11 03:21N 29°42' W 095°01'0 0.0
2018-Jan-11 03:00N 29°42' W 095°01'0 0.0
2018-Jan-11 02:15N 29°42' W 095°01'0 0.0
2018-Jan-11 02:00N 29°42' W 095°01'0 0.0
2018-Jan-11 01:27N 29°42' W 095°01'0 0.0
2018-Jan-11 00:57N 29°42' W 095°01'0 1.1
2018-Jan-11 00:30N 29°43' W 095°01'1 1.0
2018-Jan-10 23:30N 29°44' W 095°01'2 3.6
2018-Jan-10 23:00N 29°42' W 095°01'1 2.8
2018-Jan-10 22:29N 29°41' W 094°60'0 0.0
2018-Jan-10 21:53N 29°41' W 094°60'0 0.0
2018-Jan-10 21:26N 29°41' W 094°60'1 2.1
2018-Jan-10 21:00N 29°42' W 094°60'4 0.5
2018-Jan-10 14:05N 29°44' W 095°03'2 0.9
2018-Jan-10 11:21N 29°42' W 095°01'3 7.5
2018-Jan-10 11:01N 29°41' W 094°59'1 2.7
2018-Jan-10 10:30N 29°41' W 095°00'0 0.1
2018-Jan-10 09:57N 29°41' W 095°00'0 0.0
2018-Jan-10 08:09N 29°41' W 095°00'1 3.9
2018-Jan-10 08:00N 29°41' W 094°60'2 1.7
2018-Jan-10 06:44N 29°43' W 095°01'0 1.2
2018-Jan-10 06:24N 29°42' W 095°01'0 0.0
2018-Jan-10 06:00N 29°42' W 095°01'0 0.0
2018-Jan-10 05:30N 29°42' W 095°01'0 0.0
2018-Jan-10 04:45N 29°42' W 095°01'0 0.0
2018-Jan-10 04:24N 29°42' W 095°01'1 3.1
2018-Jan-10 03:58N 29°44' W 095°01'1 1.0
2018-Jan-10 02:42N 29°42' W 095°01'0 0.0
2018-Jan-09 22:44N 29°42' W 095°01'0 0.0
2018-Jan-09 22:26N 29°42' W 095°01'5 2.2
2018-Jan-09 20:09N 29°38' W 094°58'1 9.4
2018-Jan-09 20:00N 29°39' W 094°58'2 3.8
2018-Jan-09 19:30N 29°41' W 094°60'0 0.8
2018-Jan-09 19:00N 29°41' W 094°59'2 4.5
2018-Jan-09 18:31N 29°39' W 094°58'4 7.3
2018-Jan-09 18:00N 29°42' W 095°01'1 1.0
2018-Jan-09 17:30N 29°42' W 095°01'0 0.0
2018-Jan-09 17:00N 29°42' W 095°01'0 0.0
2018-Jan-09 16:30N 29°42' W 095°01'0 0.0
2018-Jan-09 16:01N 29°42' W 095°01'2 3.8
2018-Jan-09 15:21N 29°44' W 095°03'0 0.1
2018-Jan-09 15:00N 29°44' W 095°03'2 4.0
2018-Jan-09 14:30N 29°46' W 095°04'2 0.9
2018-Jan-09 12:50N 29°45' W 095°06'1 3.0
2018-Jan-09 12:30N 29°46' W 095°05'5 7.0
2018-Jan-09 11:47N 29°42' W 095°01'0 0.1
2018-Jan-09 08:46N 29°42' W 095°01'2 0.1
2018-Jan-08 18:55N 29°41' W 094°59'9 0.5
2018-Jan-08 01:45N 29°44' W 095°08'0 0.7
2018-Jan-08 01:18N 29°44' W 095°09'0 0.0
2018-Jan-08 00:55N 29°44' W 095°09'4 0.3
2018-Jan-07 08:58N 29°46' W 095°04'2 0.6
2018-Jan-07 05:55N 29°44' W 095°03'2 3.3
2018-Jan-07 05:13N 29°42' W 095°01'0 0.7
2018-Jan-07 05:00N 29°42' W 095°01'0 0.0
2018-Jan-07 04:30N 29°42' W 095°01'0 0.0
2018-Jan-07 03:58N 29°42' W 095°01'5 6.7
2018-Jan-07 03:13N 29°46' W 095°05'1 0.1
2018-Jan-06 19:33N 29°45' W 095°06'2 4.5
2018-Jan-06 19:05N 29°44' W 095°03'2 5.5
2018-Jan-06 18:38N 29°43' W 095°01'1 6.5
2018-Jan-06 18:29N 29°42' W 095°00'3 6.2
2018-Jan-06 18:01N 29°40' W 094°58'3 5.3
2018-Jan-06 17:22N 29°42' W 095°01'0 0.0
2018-Jan-06 16:52N 29°42' W 095°01'0 0.0
2018-Jan-06 14:01N 29°42' W 095°01'0 0.0
2018-Jan-06 13:52N 29°42' W 095°01'0 0.0
2018-Jan-06 13:07N 29°42' W 095°01'0 0.0
2018-Jan-06 12:55N 29°42' W 095°01'0 0.0
2018-Jan-06 12:10N 29°42' W 095°01'0 0.0
2018-Jan-06 11:58N 29°42' W 095°01'0 0.0
2018-Jan-06 11:13N 29°42' W 095°01'0 0.0
2018-Jan-06 10:58N 29°42' W 095°01'0 0.0
2018-Jan-06 08:49N 29°42' W 095°01'0 0.0
2018-Jan-06 08:16N 29°42' W 095°01'0 0.0
2018-Jan-06 07:58N 29°42' W 095°01'1 1.2
2018-Jan-06 07:30N 29°42' W 095°01'4 8.9
2018-Jan-06 07:00N 29°38' W 094°58'3 6.2
2018-Jan-06 06:30N 29°37' W 095°01'0 0.9
2018-Jan-06 06:00N 29°37' W 095°01'1 1.8
2018-Jan-06 05:30N 29°37' W 095°00'0 0.2
2018-Jan-06 05:00N 29°37' W 095°00'0 0.0
2018-Jan-06 04:30N 29°37' W 095°00'0 0.0
2018-Jan-06 04:00N 29°37' W 095°00'0 0.0
2018-Jan-06 03:30N 29°37' W 095°00'0 0.0
2018-Jan-06 03:00N 29°37' W 095°00'1 1.2
2018-Jan-06 02:30N 29°37' W 095°01'0 0.1
2018-Jan-06 01:59N 29°37' W 095°01'2 3.1
2018-Jan-06 01:30N 29°37' W 094°59'4 3.0
2018-Jan-06 00:06N 29°41' W 094°59'0 0.1
2018-Jan-06 00:00N 29°41' W 094°59'0 0.0
2018-Jan-05 23:30N 29°41' W 094°59'0 0.0
2018-Jan-05 23:00N 29°41' W 094°59'0 0.0
2018-Jan-05 22:30N 29°41' W 094°59'0 0.0
2018-Jan-05 22:00N 29°41' W 094°59'0 0.0
2018-Jan-05 21:30N 29°41' W 094°59'0 0.6
2018-Jan-05 20:59N 29°41' W 094°59'0 0.4
2018-Jan-05 20:30N 29°41' W 094°59'2 0.2
2018-Jan-05 11:58N 29°42' W 095°01'2 3.1
2018-Jan-05 11:29N 29°41' W 095°00'0 0.2
2018-Jan-05 10:59N 29°41' W 095°00'2 3.8
2018-Jan-05 10:30N 29°40' W 094°59'1 2.0
2018-Jan-05 09:52N 29°41' W 094°59'0 0.0
2018-Jan-05 08:52N 29°41' W 094°59'0 0.0
2018-Jan-05 08:22N 29°41' W 094°59'0 0.0
2018-Jan-05 07:52N 29°41' W 094°59'0 0.0
2018-Jan-05 07:22N 29°41' W 094°59'0 0.0
2018-Jan-05 06:58N 29°41' W 094°59'0 0.0
2018-Jan-05 06:22N 29°41' W 094°59'0 0.0
2018-Jan-05 05:58N 29°41' W 094°59'0 0.0
2018-Jan-05 05:28N 29°41' W 094°59'0 0.0
2018-Jan-05 04:52N 29°41' W 094°59'0 0.0
2018-Jan-05 04:25N 29°41' W 094°59'0 0.0
2018-Jan-05 03:58N 29°41' W 094°59'0 0.0
2018-Jan-05 03:28N 29°41' W 094°59'0 0.0
2018-Jan-05 02:55N 29°41' W 094°59'0 0.0
2018-Jan-05 02:10N 29°41' W 094°59'0 0.0
2018-Jan-05 01:52N 29°41' W 094°59'0 0.0
2018-Jan-05 01:30N 29°41' W 094°59'1 1.9
2018-Jan-05 00:55N 29°41' W 095°00'1 3.0
2018-Jan-05 00:31N 29°41' W 094°59'4 7.7
2018-Jan-04 23:58N 29°37' W 094°59'1 2.8
2018-Jan-04 23:30N 29°37' W 095°00'0 0.0
2018-Jan-04 23:00N 29°37' W 095°00'0 0.0
2018-Jan-04 22:28N 29°37' W 095°00'0 0.0
2018-Jan-04 21:58N 29°37' W 095°00'0 0.0
2018-Jan-04 21:28N 29°37' W 095°00'0 0.0
2018-Jan-04 20:58N 29°37' W 095°00'2 5.3
2018-Jan-04 20:30N 29°37' W 094°58'4 8.0
2018-Jan-04 20:00N 29°41' W 094°60'1 1.4
2018-Jan-04 19:27N 29°41' W 095°01'1 2.7
2018-Jan-04 18:57N 29°42' W 095°01'0 0.0
2018-Jan-04 18:23N 29°42' W 095°01'0 0.0
2018-Jan-04 17:56N 29°42' W 095°01'0 0.0
2018-Jan-04 15:53N 29°42' W 095°01'0 0.0
2018-Jan-04 15:14N 29°42' W 095°01'0 0.0
2018-Jan-04 14:53N 29°42' W 095°01'0 0.0
2018-Jan-04 14:11N 29°42' W 095°01'0 0.0
2018-Jan-04 13:59N 29°42' W 095°01'0 0.0
2018-Jan-04 13:29N 29°42' W 095°01'0 0.0
2018-Jan-04 12:56N 29°42' W 095°01'1 3.2
2018-Jan-04 12:30N 29°44' W 095°01'0 0.1
2018-Jan-04 11:57N 29°44' W 095°01'1 0.8
2018-Jan-04 10:04N 29°42' W 095°01'0 0.0
2018-Jan-04 09:52N 29°42' W 095°01'0 0.0
2018-Jan-04 09:28N 29°42' W 095°01'0 0.0
2018-Jan-04 08:55N 29°42' W 095°01'0 0.0
2018-Jan-04 07:16N 29°42' W 095°01'0 0.0
2018-Jan-04 06:46N 29°42' W 095°01'0 0.0
2018-Jan-04 06:28N 29°42' W 095°01'0 0.0
2018-Jan-04 04:58N 29°42' W 095°01'0 0.0
2018-Jan-04 00:56N 29°42' W 095°01'6 0.9
2018-Jan-03 18:50N 29°44' W 095°07'3 2.4
2018-Jan-03 17:30N 29°44' W 095°04'2 4.3
2018-Jan-03 16:55N 29°43' W 095°01'3 6.9
2018-Jan-03 16:30N 29°41' W 094°59'4 7.9
2018-Jan-03 15:59N 29°37' W 094°59'2 3.3
2018-Jan-03 15:30N 29°37' W 095°01'0 0.9
2018-Jan-03 15:00N 29°37' W 095°01'1 1.4
2018-Jan-03 14:30N 29°37' W 095°01'1 1.8
2018-Jan-03 14:00N 29°37' W 095°00'0 0.6
2018-Jan-03 13:30N 29°37' W 094°60'0 0.1
2018-Jan-03 12:54N 29°37' W 095°00'1 1.9
2018-Jan-03 12:30N 29°37' W 095°01'0 0.1
2018-Jan-03 12:00N 29°37' W 095°01'1 1.5
2018-Jan-03 11:30N 29°37' W 095°00'0 0.0
2018-Jan-03 10:58N 29°37' W 095°00'0 0.0
2018-Jan-03 10:28N 29°37' W 095°00'0 0.0
2018-Jan-03 09:58N 29°37' W 095°00'0 0.0
2018-Jan-03 09:28N 29°37' W 095°00'0 0.6
2018-Jan-03 09:00N 29°37' W 095°00'0 0.3
2018-Jan-03 08:31N 29°37' W 095°01'0 0.0
2018-Jan-03 08:01N 29°37' W 095°01'0 0.0
2018-Jan-03 07:30N 29°37' W 095°01'0 0.0
2018-Jan-03 07:00N 29°37' W 095°01'0 0.0
2018-Jan-03 06:28N 29°37' W 095°01'0 0.0
2018-Jan-03 05:58N 29°37' W 095°01'0 0.0
2018-Jan-03 05:28N 29°37' W 095°01'0 0.0
2018-Jan-03 04:58N 29°37' W 095°01'0 0.0
2018-Jan-03 04:28N 29°37' W 095°01'0 0.0
2018-Jan-03 03:58N 29°37' W 095°01'0 0.0
2018-Jan-03 03:28N 29°37' W 095°01'0 0.0
2018-Jan-03 02:58N 29°37' W 095°01'0 0.0
2018-Jan-03 02:28N 29°37' W 095°01'0 0.0
2018-Jan-03 01:58N 29°37' W 095°01'0 0.0
2018-Jan-03 01:28N 29°37' W 095°01'0 0.0
2018-Jan-03 00:58N 29°37' W 095°01'1 1.6
2018-Jan-03 00:30N 29°37' W 095°01'0 0.1
2018-Jan-03 00:00N 29°37' W 095°01'1 2.1
2018-Jan-02 23:30N 29°37' W 095°00'0 0.0
2018-Jan-02 22:59N 29°37' W 095°00'0 0.0
2018-Jan-02 22:29N 29°37' W 095°00'0 0.0
2018-Jan-02 21:59N 29°37' W 095°00'0 0.0
2018-Jan-02 21:29N 29°37' W 095°00'0 0.0
2018-Jan-02 20:59N 29°37' W 095°00'0 0.0
2018-Jan-02 20:29N 29°37' W 095°00'0 0.0
2018-Jan-02 19:59N 29°37' W 095°00'0 0.0
2018-Jan-02 19:29N 29°37' W 095°00'0 0.1
2018-Jan-02 19:00N 29°37' W 095°00'2 4.0
2018-Jan-02 18:30N 29°37' W 094°58'2 3.9
2018-Jan-02 18:01N 29°37' W 095°00'0 0.4
2018-Jan-02 17:30N 29°37' W 094°60'0 0.0
2018-Jan-02 17:00N 29°37' W 094°60'0 0.0
2018-Jan-02 16:30N 29°37' W 094°60'0 0.0
2018-Jan-02 15:59N 29°37' W 094°60'0 0.5
2018-Jan-02 15:30N 29°37' W 095°00'1 1.6
2018-Jan-02 15:00N 29°37' W 095°01'0 0.0
2018-Jan-02 14:30N 29°37' W 095°01'0 0.0
2018-Jan-02 14:00N 29°37' W 095°01'0 0.0
2018-Jan-02 13:30N 29°37' W 095°01'0 0.0
2018-Jan-02 13:00N 29°37' W 095°01'0 0.0
2018-Jan-02 12:30N 29°37' W 095°01'1 1.3
2018-Jan-02 12:00N 29°37' W 095°00'1 1.5
2018-Jan-02 11:31N 29°37' W 095°01'2 4.4
2018-Jan-02 11:00N 29°37' W 094°59'4 8.2
2018-Jan-02 10:30N 29°34' W 094°55'2 4.6
2018-Jan-02 09:58N 29°36' W 094°57'3 6.5
2018-Jan-02 09:30N 29°37' W 095°00'0 0.0
2018-Jan-02 08:30N 29°37' W 095°00'0 0.0
2018-Jan-02 08:00N 29°37' W 095°00'0 0.0
2018-Jan-02 07:30N 29°37' W 095°00'0 0.0
2018-Jan-02 07:00N 29°37' W 095°00'0 0.4
2018-Jan-02 06:31N 29°37' W 095°00'0 0.5
2018-Jan-02 05:59N 29°37' W 095°00'0 0.4
2018-Jan-02 05:30N 29°37' W 095°01'0 0.1
2018-Jan-02 04:30N 29°37' W 095°00'0 0.3
2018-Jan-02 04:00N 29°37' W 095°01'0 0.8
2018-Jan-02 03:31N 29°37' W 095°00'0 0.6
2018-Jan-02 02:59N 29°37' W 095°01'0 0.0
2018-Jan-02 02:29N 29°37' W 095°01'0 0.0
2018-Jan-02 01:59N 29°37' W 095°01'2 4.9
2018-Jan-02 01:30N 29°37' W 094°58'2 4.7
2018-Jan-02 01:00N 29°37' W 095°01'3 5.4
2018-Jan-02 00:30N 29°38' W 094°58'5 9.2
2018-Jan-01 23:59N 29°42' W 094°60'  

Dump ship's entire track history